Regional Weather Roundup
Issued by NWS Jackson, KY

Home | Current Version | Previous Version | Graphics & Text | Print | Product List | Glossary On
Versions: 1 2 3 4 5 6 7 8 9 10 11 12 13 14 15 16 17 18 19 20 21 22 23 24 25 26 27 28 29 30 31 32 33 34 35 36 37 38 39 40 41 42 43 44 45 46 47 48 49 50
527
ASUS43 KJKL 271310
RWRJKL

EAST KENTUCKY HOURLY WEATHER ROUNDUP
NATIONAL WEATHER SERVICE JACKSON KY
900 AM EDT WED JUL 27 2016

NOTE: "FAIR" INDICATES FEW OR NO CLOUDS BELOW 12,000 FEET WITH
NO SIGNIFICANT WEATHER AND/OR OBSTRUCTIONS TO VISIBILITY.

* THESE REPORTS ARE NOT UNDER NWS QUALITY CONTROL AND MAY NOT
  REPORT WEATHER SUCH AS PRECIPITATION AND FOG.

KYZ079-080-083-085-087-088-110-112-115-119-120-271400
...EASTERN KENTUCKY...

CITY           SKY/WX    TMP DP  RH WIND       PRES   REMARKS
JACKSON        MOSUNNY   78  74  87 CALM      30.06S
LONDON         LGT RAIN  77  72  84 W6        30.07R
SOMERSET*      LGT RAIN  73  73 100 CALM      30.07R
MONTICELLO*    CLOUDY   N/A N/A N/A N8        30.07R
WILLIAMSBURG*  MOSUNNY   77  75  94 CALM      30.06S
MIDDLESBORO*   SUNNY     77  74  89 CALM      30.07F
HARLAN APT*    CLOUDY    75  70  83 CALM      30.10S
PIKE CO APT*     N/A     76  74  94 S5        30.07S
BIG SANDY APT* SUNNY     76  74  95 CALM      30.05F
MOREHEAD APT*  SUNNY     75  72  88 CALM      30.06S
ASHLAND*       CLOUDY    73  72  94 CALM      30.02R
$$

KYZ035-036-041-042-044-050-067-078-099-271400
...CENTRAL KENTUCKY...

CITY           SKY/WX    TMP DP  RH WIND       PRES   REMARKS
MT STERLING*   MOSUNNY   77  73  88 CALM      30.06S
FLEMING/MASON* CLOUDY    74  73  94 CALM      30.05S
DANVILLE*      CLOUDY    79  73  83 SW3       30.06R
LEXINGTON      MOSUNNY   78  73  84 CALM      30.04S
FRANKFORT      SUNNY     77  73  87 N3        30.02F
LOUISVILLE     PTSUNNY   80  73  79 CALM      30.00F HAZE
LEBANON*       PTSUNNY   77  75  94 S12       30.04S
GLASGOW*       MOSUNNY   76  75  95 CALM      30.02S
BOWLING GREEN  CLOUDY    80  75  84 SE6       30.01F
$$

KYZ091>093-OHZ055-061-077-WVZ005-015-034-035-042-271400
...SOUTHERN OHIO/WEST VIRGINIA...

CITY           SKY/WX    TMP DP  RH WIND       PRES   REMARKS
COVINGTON      CLOUDY    76  73  91 NW3       30.03S
COLUMBUS       PTSUNNY   76  69  79 VRB3      30.03R
DAYTON         MOSUNNY   76  69  79 CALM      30.06R
WILMINGTON     CLOUDY    79  73  82 W5        30.04R
HUNTINGTON     FOG       72  71  97 CALM      30.04R VSB 1
CHARLESTON     PTSUNNY   74  70  87 CALM      30.05R FOG
PINEVILLE*       N/A     73  69  86 MISG      30.14S
BECKLEY          N/A     75  69  81 SW3       30.13R
BLUEFIELD        N/A     74  70  87 W6        30.16R
LOGAN CO APT*    N/A     75  73  94 CALM      30.07R
$$

VAZ002-007-008-TNZ017-027-036-066-071-271400
...SOUTHWEST VIRGINIA/EAST TENNESSEE...

CITY           SKY/WX    TMP DP  RH WIND       PRES   REMARKS
WISE*            N/A     77  70  78 SW3       30.16S
JONESVILLE*    PTSUNNY   79  73  83 CALM      30.12S
ABINGDON*      PTSUNNY   75  73  91 CALM      30.13S
BRISTOL        PTSUNNY   76  71  85 CALM      30.10S
MORRISTOWN*    MOSUNNY   81  73  78 VRB6      30.08F
SEVIERVILLE*   SUNNY     79  70  73 S3        30.07S
KNOXVILLE      MOSUNNY   79  72  79 SW5       30.06S
OAK RIDGE      SUNNY     81  72  74 VRB3      30.07S
CROSSVILLE     SUNNY     76  70  82 W7        30.11F
NASHVILLE      MOSUNNY   79  73  82 SE3       30.03S
$$

...KEY TO REMARKS...
VSB - VISIBILITY IN MILES
WCI - WIND CHILL INDEX
HX  - HEAT INDEX

$$




USA.gov is the U.S. government's official web portal to all federal, state and local government web resources and services.